sat.trackr.live / text

‹ back to catalog

STAR ONE C3

NORAD 38991 · 2012-062A

PAYLOAD ACTIVE UNKNOWN

§ Identity

Operator
Country
BRAZ
Launch date
2012-11-10
Launch site
FRGUI
Launch vehicle
Mass (kg)
RCS (m²)
113.21

Purposes: comms

External: N2YO · Heavens-Above · Gunter

§ Orbital elements

Epoch: 2026-05-25T03:23:10.627008Z

Period
1,436.10 min
Inclination
0.0273°
Eccentricity
0.0002663
Mean motion
1.00271546 rev/d
Perigee alt
35,775.4 km
Apogee alt
35,797.9 km
Semi-major
42,164.8 km
B*
0.0000e+0
RAAN
276.3084°
Arg perigee
166.8066°
Mean anomaly
135.4173°
Rev number
4,953

§ Raw data

STAR ONE C31 38991U 12062A   26145.14109522 -.00000251  00000+0  00000+0 0  99902 38991   0.0273 276.3084 0002663 166.8066 135.4173  1.00271546 49535

JSON: /api/v1/satellites/38991 · /tle

For live sub-satellite position, see the globe view (requires WebGL).

§ Visibility from observer

Set your observer location to see the next 7 days of passes ≥ 10°. The values pass through the URL so the page stays shareable.

No JS? Fill the form by hand. The geolocation button needs JavaScript.